| time (UTC) | temp F | wind direction | speed knots | gust knots | rain 1hr in | rain 24hr in | rain mn in | humidity % | barometer mb |
| 20260506051302 | 47 | 313 | 5.2 | 10.4 | 0.00 | 0.00 | 0.00 | 89 | 1013.8 |
| 20260506050802 | 47 | 322 | 5.2 | 7.8 | 0.00 | 0.00 | 0.00 | 88 | 1013.8 |
| 20260506050302 | 46 | 351 | 4.3 | 7.0 | 0.00 | 0.00 | 0.00 | 87 | 1013.8 |
| 20260506044802 | 47 | 321 | 5.2 | 8.7 | 0.00 | 0.00 | 0.00 | 88 | 1013.9 |
| 20260506043304 | 47 | 328 | 2.6 | 7.8 | 0.00 | 0.00 | 0.00 | 89 | 1013.9 |
| 20260506042803 | 47 | 319 | 3.5 | 7.0 | 0.00 | 0.00 | 0.00 | 89 | 1013.8 |
| 20260506041803 | 47 | 325 | 4.3 | 10.4 | 0.00 | 0.00 | 0.00 | 89 | 1013.9 |
| 20260506040803 | 47 | 328 | 4.3 | 8.7 | 0.00 | 0.00 | 0.00 | 89 | 1013.9 |
| 20260506040302 | 47 | 325 | 4.3 | 10.4 | 0.00 | 0.00 | 0.00 | 89 | 1013.9 |
| 20260506035802 | 47 | 313 | 4.3 | 8.7 | 0.00 | 0.00 | 0.00 | 89 | 1013.9 |
| 20260506035305 | 47 | 346 | 4.3 | 8.7 | 0.00 | 0.00 | 0.00 | 89 | 1013.9 |
| 20260506034803 | 47 | 316 | 3.5 | 7.8 | 0.00 | 0.00 | 0.00 | 88 | 1013.8 |
| 20260506034303 | 47 | 328 | 6.1 | 11.3 | 0.00 | 0.00 | 0.00 | 88 | 1013.8 |
| 20260506033802 | 47 | 329 | 5.2 | 12.2 | 0.00 | 0.00 | 0.00 | 88 | 1013.9 |
| 20260506033302 | 47 | 329 | 5.2 | 12.2 | 0.00 | 0.00 | 0.00 | 88 | 1013.9 |
| 20260506032803 | 47 | 322 | 5.2 | 11.3 | 0.00 | 0.00 | 0.00 | 88 | 1013.9 |
| 20260506032305 | 47 | 328 | 5.2 | 12.2 | 0.00 | 0.00 | 0.00 | 88 | 1014.0 |
| 20260506031803 | 47 | 324 | 4.3 | 12.2 | 0.00 | 0.00 | 0.00 | 88 | 1014.0 |
| 20260506031303 | 47 | 332 | 6.1 | 12.2 | 0.00 | 0.00 | 0.00 | 88 | 1014.1 |
| 20260506030803 | 47 | 321 | 6.1 | 11.3 | 0.00 | 0.00 | 0.00 | 88 | 1014.1 |
| 20260506030302 | 48 | 332 | 5.2 | 10.4 | 0.00 | 0.00 | 0.00 | 88 | 1014.1 |
| 20260506025802 | 48 | 320 | 6.1 | 12.2 | 0.00 | 0.00 | 0.00 | 89 | 1014.1 |
| 20260506025305 | 48 | 316 | 6.1 | 10.4 | 0.00 | 0.00 | 0.00 | 89 | 1014.2 |
| 20260506024803 | 47 | 326 | 3.5 | 10.4 | 0.00 | 0.00 | 0.00 | 88 | 1014.2 |
| 20260506024302 | 47 | 329 | 4.3 | 8.7 | 0.00 | 0.00 | 0.00 | 89 | 1014.2 |
| 20260506023803 | 47 | 328 | 4.3 | 11.3 | 0.00 | 0.00 | 0.00 | 89 | 1014.2 |
| 20260506023302 | 47 | 307 | 3.5 | 7.8 | 0.00 | 0.00 | 0.00 | 89 | 1014.2 |
| 20260506022802 | 47 | 316 | 4.3 | 10.4 | 0.00 | 0.00 | 0.00 | 89 | 1014.2 |
| 20260506021803 | 47 | 314 | 3.5 | 10.4 | 0.00 | 0.00 | 0.00 | 89 | 1014.1 |
| 20260506021302 | 47 | 315 | 3.5 | 10.4 | 0.00 | 0.00 | 0.00 | 88 | 1014.2 |
| 20260506020802 | 48 | 318 | 4.3 | 7.8 | 0.00 | 0.00 | 0.00 | 88 | 1014.2 |
| 20260506020303 | 47 | 315 | 3.5 | 7.8 | 0.00 | 0.00 | 0.00 | 88 | 1014.2 |
| 20260506015802 | 47 | 318 | 2.6 | 8.7 | 0.00 | 0.00 | 0.00 | 88 | 1014.2 |
| 20260506015306 | 48 | 334 | 2.6 | 7.8 | 0.00 | 0.00 | 0.00 | 88 | 1014.2 |
| 20260506014803 | 47 | 309 | 4.3 | 8.7 | 0.00 | 0.00 | 0.00 | 88 | 1014.2 |
| 20260506014302 | 47 | 316 | 2.6 | 10.4 | 0.00 | 0.00 | 0.00 | 87 | 1014.2 |
| 20260506013803 | 47 | 304 | 4.3 | 7.8 | 0.00 | 0.00 | 0.00 | 88 | 1014.3 |
| 20260506013303 | 47 | 315 | 4.3 | 11.3 | 0.00 | 0.00 | 0.00 | 87 | 1014.3 |
| 20260506012804 | 47 | 313 | 3.5 | 7.8 | 0.00 | 0.00 | 0.00 | 87 | 1014.3 |
| 20260506012307 | 47 | 333 | 2.6 | 7.0 | 0.00 | 0.00 | 0.00 | 87 | 1014.3 |
| 20260506011302 | 47 | 287 | 4.3 | 8.7 | 0.00 | 0.00 | 0.00 | 87 | 1014.4 |
| 20260506010802 | 47 | 334 | 3.5 | 8.7 | 0.00 | 0.00 | 0.00 | 86 | 1014.5 |
| 20260506010303 | 47 | 316 | 4.3 | 11.3 | 0.00 | 0.00 | 0.00 | 85 | 1014.4 |
| 20260506005305 | 47 | 297 | 3.5 | 7.0 | 0.00 | 0.00 | 0.00 | 86 | 1014.5 |
| 20260506004802 | 47 | 315 | 5.2 | 10.4 | 0.00 | 0.00 | 0.00 | 85 | 1014.7 |
| 20260506004303 | 47 | 308 | 6.1 | 11.3 | 0.00 | 0.00 | 0.00 | 86 | 1014.7 |
| 20260506003803 | 47 | 304 | 5.2 | 11.3 | 0.00 | 0.00 | 0.00 | 86 | 1014.7 |
| 20260506003303 | 47 | 329 | 5.2 | 12.2 | 0.00 | 0.00 | 0.00 | 86 | 1014.7 |
| 20260506002803 | 47 | 302 | 4.3 | 11.3 | 0.00 | 0.00 | 0.00 | 86 | 1014.7 |
| 20260506002305 | 47 | 314 | 4.3 | 10.4 | 0.00 | 0.00 | 0.00 | 86 | 1014.7 |
| 20260506001803 | 47 | 321 | 5.2 | 10.4 | 0.00 | 0.00 | 0.00 | 86 | 1014.8 |
| 20260506001302 | 47 | 325 | 4.3 | 11.3 | 0.00 | 0.00 | 0.00 | 86 | 1014.9 |
| 20260506000803 | 47 | 317 | 5.2 | 10.4 | 0.00 | 0.00 | 0.00 | 86 | 1014.9 |
| 20260506000304 | 47 | 337 | 6.1 | 13.0 | 0.00 | 0.00 | 0.00 | 87 | 1014.9 |
| 20260505235803 | 47 | 331 | 4.3 | 11.3 | 0.00 | 0.00 | 0.00 | 86 | 1014.9 |
| 20260505234804 | 48 | 336 | 4.3 | 7.8 | 0.00 | 0.00 | 0.00 | 87 | 1015.0 |
| 20260505234302 | 48 | 308 | 4.3 | 10.4 | 0.00 | 0.00 | 0.00 | 87 | 1015.1 |
| 20260505233803 | 48 | 326 | 6.1 | 11.3 | 0.00 | 0.00 | 0.00 | 87 | 1015.1 |
| 20260505233302 | 48 | 324 | 4.3 | 10.4 | 0.00 | 0.00 | 0.00 | 87 | 1015.2 |
| 20260505232803 | 48 | 325 | 6.1 | 12.2 | 0.00 | 0.00 | 0.00 | 87 | 1015.1 |
| 20260505232305 | 48 | 324 | 5.2 | 11.3 | 0.00 | 0.00 | 0.00 | 87 | 1015.0 |
| 20260505231802 | 48 | 317 | 5.2 | 10.4 | 0.00 | 0.00 | 0.00 | 87 | 1015.0 |
| 20260505231303 | 48 | 320 | 5.2 | 12.2 | 0.00 | 0.00 | 0.00 | 87 | 1015.1 |
| 20260505230803 | 48 | 310 | 6.1 | 10.4 | 0.00 | 0.00 | 0.00 | 88 | 1015.1 |
| 20260505230302 | 48 | 324 | 6.1 | 12.2 | 0.00 | 0.00 | 0.00 | 87 | 1015.1 |
| 20260505225305 | 48 | 294 | 5.2 | 12.2 | 0.00 | 0.00 | 0.00 | 86 | 1015.1 |
| 20260505224802 | 48 | 319 | 4.3 | 13.9 | 0.00 | 0.00 | 0.00 | 86 | 1015.0 |
| 20260505224302 | 48 | 327 | 8.7 | 13.9 | 0.00 | 0.00 | 0.00 | 86 | 1015.0 |
| 20260505223803 | 48 | 329 | 6.1 | 13.0 | 0.00 | 0.00 | 0.00 | 86 | 1015.1 |
| 20260505223302 | 48 | 324 | 6.1 | 17.4 | 0.00 | 0.00 | 0.00 | 86 | 1015.1 |
| 20260505222802 | 48 | 325 | 5.2 | 11.3 | 0.00 | 0.00 | 0.00 | 86 | 1015.2 |
| 20260505222305 | 48 | 342 | 6.1 | 12.2 | 0.00 | 0.00 | 0.00 | 85 | 1015.2 |
| 20260505221803 | 48 | 325 | 4.3 | 13.0 | 0.00 | 0.00 | 0.00 | 85 | 1015.2 |
| 20260505220803 | 48 | 331 | 7.8 | 12.2 | 0.00 | 0.00 | 0.00 | 84 | 1015.3 |
| 20260505220303 | 48 | 327 | 5.2 | 10.4 | 0.00 | 0.00 | 0.00 | 84 | 1015.3 |
| 20260505215804 | 48 | 322 | 5.2 | 10.4 | 0.00 | 0.00 | 0.00 | 85 | 1015.5 |
| 20260505215305 | 48 | 321 | 5.2 | 11.3 | 0.00 | 0.00 | 0.00 | 85 | 1015.5 |
| 20260505214803 | 49 | 315 | 3.5 | 7.8 | 0.00 | 0.00 | 0.00 | 85 | 1015.6 |
| 20260505214302 | 48 | 344 | 4.3 | 10.4 | 0.00 | 0.00 | 0.00 | 84 | 1015.6 |
| 20260505213803 | 49 | 327 | 3.5 | 13.0 | 0.00 | 0.00 | 0.00 | 85 | 1015.6 |
| 20260505213304 | 49 | 327 | 5.2 | 8.7 | 0.00 | 0.00 | 0.00 | 85 | 1015.6 |
| 20260505212803 | 49 | 329 | 5.2 | 11.3 | 0.00 | 0.00 | 0.00 | 86 | 1015.5 |
| 20260505211802 | 49 | 325 | 5.2 | 10.4 | 0.00 | 0.00 | 0.00 | 86 | 1015.7 |
| 20260505210802 | 49 | 328 | 4.3 | 11.3 | 0.00 | 0.00 | 0.00 | 86 | 1015.7 |
| 20260505205305 | 49 | 345 | 5.2 | 10.4 | 0.00 | 0.00 | 0.00 | 85 | 1015.7 |
| 20260505204803 | 49 | 324 | 5.2 | 10.4 | 0.00 | 0.00 | 0.00 | 85 | 1015.7 |
| 20260505204304 | 49 | 341 | 5.2 | 10.4 | 0.00 | 0.00 | 0.00 | 86 | 1015.6 |
| 20260505203803 | 49 | 332 | 5.2 | 12.2 | 0.00 | 0.00 | 0.00 | 85 | 1015.6 |
| 20260505203302 | 49 | 341 | 4.3 | 12.2 | 0.00 | 0.00 | 0.00 | 86 | 1015.6 |
| 20260505202803 | 49 | 320 | 7.0 | 14.8 | 0.00 | 0.00 | 0.00 | 86 | 1015.6 |
| 20260505201805 | 49 | 343 | 7.8 | 13.9 | 0.00 | 0.00 | 0.00 | 87 | 1015.4 |
| 20260505201303 | 49 | 337 | 6.1 | 13.0 | 0.00 | 0.00 | 0.00 | 88 | 1015.4 |
| 20260505200803 | 50 | 331 | 6.1 | 10.4 | 0.00 | 0.00 | 0.00 | 88 | 1015.4 |
| 20260505200303 | 50 | 324 | 7.0 | 12.2 | 0.00 | 0.00 | 0.00 | 88 | 1015.4 |
| 20260505195803 | 50 | 332 | 6.1 | 13.0 | 0.00 | 0.00 | 0.00 | 89 | 1015.3 |
| 20260505195305 | 50 | 336 | 6.1 | 12.2 | 0.00 | 0.00 | 0.00 | 89 | 1015.3 |
| 20260505194303 | 50 | 316 | 5.2 | 10.4 | 0.00 | 0.00 | 0.00 | 88 | 1015.3 |
| 20260505193803 | 50 | 325 | 6.1 | 12.2 | 0.00 | 0.00 | 0.00 | 88 | 1015.2 |
| 20260505193303 | 50 | 324 | 7.0 | 14.8 | 0.00 | 0.00 | 0.00 | 88 | 1015.2 |
| 20260505192804 | 50 | 339 | 5.2 | 10.4 | 0.00 | 0.00 | 0.00 | 88 | 1015.2 |
| 20260505192305 | 50 | 318 | 7.8 | 15.6 | 0.00 | 0.00 | 0.00 | 88 | 1015.2 |
| 20260505191803 | 50 | 327 | 6.1 | 8.7 | 0.00 | 0.00 | 0.00 | 88 | 1015.2 |
| 20260505191302 | 50 | 331 | 6.1 | 10.4 | 0.00 | 0.00 | 0.00 | 88 | 1015.1 |
| 20260505190303 | 50 | 336 | 5.2 | 13.0 | 0.00 | 0.00 | 0.00 | 88 | 1014.9 |
| 20260505185305 | 50 | 349 | 4.3 | 11.3 | 0.00 | 0.00 | 0.00 | 88 | 1014.9 |
| 20260505184803 | 50 | 335 | 4.3 | 12.2 | 0.00 | 0.00 | 0.00 | 88 | 1014.7 |
| 20260505184303 | 50 | 333 | 6.1 | 13.9 | 0.00 | 0.00 | 0.00 | 88 | 1014.7 |
| 20260505183803 | 50 | 324 | 6.1 | 11.3 | 0.00 | 0.00 | 0.00 | 88 | 1014.8 |
| 20260505183303 | 51 | 339 | 6.1 | 10.4 | 0.00 | 0.00 | 0.00 | 88 | 1014.8 |
| 20260505182803 | 51 | 338 | 4.3 | 10.4 | 0.00 | 0.00 | 0.00 | 88 | 1014.9 |
| 20260505182306 | 51 | 331 | 5.2 | 11.3 | 0.00 | 0.00 | 0.00 | 87 | 1014.9 |
| 20260505181802 | 51 | 328 | 7.0 | 10.4 | 0.00 | 0.00 | 0.00 | 87 | 1014.9 |
| 20260505181303 | 51 | 334 | 6.1 | 13.0 | 0.00 | 0.00 | 0.00 | 87 | 1014.7 |
| 20260505180803 | 51 | 346 | 4.3 | 8.7 | 0.00 | 0.00 | 0.00 | 87 | 1014.8 |
| 20260505180303 | 51 | 329 | 4.3 | 12.2 | 0.00 | 0.00 | 0.00 | 87 | 1014.8 |
| 20260505175804 | 51 | 338 | 7.0 | 13.9 | 0.00 | 0.00 | 0.00 | 87 | 1014.9 |
| 20260505175306 | 51 | 329 | 5.2 | 12.2 | 0.00 | 0.00 | 0.00 | 88 | 1015.0 |
| 20260505174803 | 51 | 337 | 6.1 | 12.2 | 0.00 | 0.00 | 0.00 | 87 | 1014.9 |
| 20260505174302 | 51 | 341 | 5.2 | 12.2 | 0.00 | 0.00 | 0.00 | 87 | 1014.9 |
| 20260505173804 | 51 | 345 | 5.2 | 8.7 | 0.00 | 0.00 | 0.00 | 87 | 1014.9 |
| 20260505173302 | 51 | 335 | 7.0 | 10.4 | 0.00 | 0.00 | 0.00 | 87 | 1015.0 |
| 20260505172802 | 51 | 312 | 5.2 | 10.4 | 0.00 | 0.00 | 0.00 | 87 | 1015.0 |
| 20260505172306 | 51 | 334 | 5.2 | 11.3 | 0.00 | 0.00 | 0.00 | 87 | 1014.8 |
| 20260505171803 | 51 | 318 | 4.3 | 7.8 | 0.00 | 0.00 | 0.00 | 87 | 1014.8 |
| 20260505171303 | 51 | 343 | 5.2 | 12.2 | 0.00 | 0.00 | 0.00 | 86 | 1014.9 |
| 20260505170303 | 52 | 334 | 5.2 | 11.3 | 0.00 | 0.00 | 0.00 | 86 | 1015.0 |
| 20260505165804 | 52 | 345 | 3.5 | 10.4 | 0.00 | 0.00 | 0.00 | 86 | 1015.0 |
| 20260505165306 | 52 | 347 | 6.1 | 10.4 | 0.00 | 0.00 | 0.00 | 86 | 1015.0 |
| 20260505164803 | 52 | 320 | 7.0 | 10.4 | 0.00 | 0.00 | 0.00 | 85 | 1014.9 |
| 20260505163804 | 52 | 333 | 3.5 | 7.8 | 0.00 | 0.00 | 0.00 | 86 | 1014.7 |
| 20260505163303 | 52 | 345 | 5.2 | 8.7 | 0.00 | 0.00 | 0.00 | 85 | 1014.7 |
| 20260505162803 | 52 | 345 | 5.2 | 10.4 | 0.00 | 0.00 | 0.00 | 85 | 1014.6 |
| 20260505162306 | 52 | 342 | 3.5 | 12.2 | 0.00 | 0.00 | 0.00 | 85 | 1014.6 |
| 20260505161802 | 52 | 344 | 6.1 | 10.4 | 0.00 | 0.00 | 0.00 | 85 | 1014.4 |
| 20260505161305 | 52 | 333 | 5.2 | 10.4 | 0.00 | 0.00 | 0.00 | 86 | 1014.5 |
| 20260505160805 | 52 | 328 | 6.1 | 10.4 | 0.00 | 0.00 | 0.00 | 85 | 1014.6 |
| 20260505160303 | 52 | 315 | 4.3 | 8.7 | 0.00 | 0.00 | 0.00 | 86 | 1014.5 |
| 20260505153303 | 52 | 329 | 5.2 | 10.4 | 0.00 | 0.00 | 0.00 | 87 | 1014.7 |
| 20260505152803 | 52 | 351 | 5.2 | 10.4 | 0.00 | 0.00 | 0.00 | 86 | 1014.7 |
| 20260505152305 | 52 | 352 | 4.3 | 10.4 | 0.00 | 0.00 | 0.00 | 86 | 1014.7 |
| 20260505150803 | 53 | 351 | 5.2 | 10.4 | 0.00 | 0.00 | 0.00 | 85 | 1014.7 |
| 20260505150302 | 53 | 16 | 4.3 | 8.7 | 0.00 | 0.00 | 0.00 | 87 | 1014.7 |
| 20260505140303 | 53 | 350 | 5.2 | 8.7 | 0.00 | 0.00 | 0.00 | 87 | 1014.8 |
| 20260505124802 | 53 | 348 | 5.2 | 10.4 | 0.00 | 0.00 | 0.00 | 85 | 1014.8 |
| 20260505124303 | 53 | 340 | 5.2 | 10.4 | 0.00 | 0.00 | 0.00 | 84 | 1014.7 |
| 20260505123805 | 53 | 325 | 5.2 | 11.3 | 0.00 | 0.00 | 0.00 | 84 | 1014.6 |
| 20260505123303 | 53 | 334 | 5.2 | 11.3 | 0.00 | 0.00 | 0.00 | 84 | 1014.7 |
| 20260505122803 | 53 | 346 | 5.2 | 10.4 | 0.00 | 0.00 | 0.00 | 84 | 1014.8 |
| 20260505122306 | 53 | 336 | 5.2 | 10.4 | 0.00 | 0.00 | 0.00 | 85 | 1014.7 |
| 20260505121303 | 53 | 333 | 7.0 | 10.4 | 0.00 | 0.00 | 0.00 | 85 | 1014.6 |
| 20260505120303 | 53 | 347 | 4.3 | 11.3 | 0.00 | 0.00 | 0.00 | 84 | 1014.6 |
| 20260505115805 | 53 | 332 | 4.3 | 11.3 | 0.00 | 0.00 | 0.00 | 85 | 1014.6 |
| 20260505114804 | 53 | 14 | 5.2 | 11.3 | 0.00 | 0.00 | 0.00 | 85 | 1014.6 |
| 20260505114304 | 53 | 339 | 5.2 | 10.4 | 0.00 | 0.00 | 0.00 | 85 | 1014.7 |
| 20260505113804 | 53 | 315 | 5.2 | 10.4 | 0.00 | 0.00 | 0.00 | 85 | 1014.6 |
| 20260505113303 | 53 | 5 | 4.3 | 8.7 | 0.00 | 0.00 | 0.00 | 85 | 1014.7 |
| 20260505112803 | 53 | 293 | 5.2 | 11.3 | 0.00 | 0.00 | 0.00 | 86 | 1014.7 |
| 20260505112304 | 53 | 335 | 4.3 | 10.4 | 0.00 | 0.00 | 0.00 | 85 | 1014.7 |
| 20260505111803 | 54 | 304 | 6.1 | 10.4 | 0.00 | 0.00 | 0.00 | 84 | 1014.7 |
| 20260505110803 | 54 | 307 | 4.3 | 8.7 | 0.00 | 0.00 | 0.00 | 86 | 1014.7 |
| 20260505110303 | 53 | 325 | 4.3 | 10.4 | 0.00 | 0.00 | 0.00 | 87 | 1014.7 |
| 20260505101803 | 54 | 309 | 4.3 | 7.0 | 0.00 | 0.00 | 0.00 | 87 | 1015.1 |
| 20260505101303 | 54 | 287 | 3.5 | 7.8 | 0.00 | 0.00 | 0.00 | 88 | 1015.0 |
| 20260505100803 | 53 | 300 | 2.6 | 7.8 | 0.00 | 0.00 | 0.00 | 87 | 1015.0 |
| 20260505100303 | 54 | 312 | 4.3 | 7.0 | 0.00 | 0.00 | 0.00 | 86 | 1015.1 |
| 20260505095802 | 54 | 291 | 4.3 | 7.8 | 0.00 | 0.00 | 0.00 | 86 | 1015.0 |
| 20260505095304 | 54 | 301 | 3.5 | 7.0 | 0.00 | 0.00 | 0.00 | 86 | 1015.0 |
| 20260505094804 | 54 | 308 | 4.3 | 7.8 | 0.00 | 0.00 | 0.00 | 86 | 1015.0 |
| 20260505094304 | 54 | 308 | 2.6 | 7.0 | 0.00 | 0.00 | 0.00 | 85 | 1015.0 |
| 20260505093803 | 54 | 311 | 3.5 | 7.0 | 0.00 | 0.00 | 0.00 | 85 | 1015.0 |
| 20260505093304 | 54 | 336 | 2.6 | 5.2 | 0.00 | 0.00 | 0.00 | 84 | 1014.9 |
| 20260505092803 | 54 | 338 | 2.6 | 5.2 | 0.00 | 0.00 | 0.00 | 87 | 1015.1 |
| 20260505091803 | 53 | 299 | 2.6 | 4.3 | 0.00 | 0.00 | 0.00 | 87 | 1014.8 |
| 20260505090803 | 53 | 299 | 2.6 | 5.2 | 0.00 | 0.00 | 0.00 | 88 | 1015.0 |
| 20260505085803 | 53 | 267 | 2.6 | 5.2 | 0.00 | 0.00 | 0.00 | 87 | 1015.0 |
| 20260505085304 | 53 | 284 | 1.7 | 5.2 | 0.00 | 0.00 | 0.00 | 89 | 1015.0 |
| 20260505084303 | 53 | 293 | 2.6 | 4.3 | 0.00 | 0.00 | 0.00 | 87 | 1015.0 |
| 20260505083804 | 53 | 324 | 1.7 | 4.3 | 0.00 | 0.00 | 0.00 | 88 | 1015.1 |
| 20260505082805 | 52 | 279 | 1.7 | 2.6 | 0.00 | 0.00 | 0.00 | 88 | 1015.0 |
| 20260505082304 | 53 | 350 | 1.7 | 2.6 | 0.00 | 0.00 | 0.00 | 89 | 1014.9 |
| 20260505081803 | 52 | 300 | 1.7 | 4.3 | 0.00 | 0.00 | 0.00 | 90 | 1015.2 |
| 20260505081305 | 53 | 287 | 0.9 | 2.6 | 0.00 | 0.00 | 0.00 | 90 | 1015.1 |
| 20260505080804 | 52 | 16 | 0.0 | 1.7 | 0.00 | 0.00 | 0.00 | 92 | 1015.0 |
| 20260505080303 | 52 | 267 | 0.0 | 2.6 | 0.00 | 0.00 | 0.00 | 92 | 1015.0 |
| 20260505075304 | 52 | 191 | 0.0 | 2.6 | 0.00 | 0.00 | 0.00 | 94 | 1015.0 |
| 20260505074803 | 51 | 180 | 0.9 | 1.7 | 0.00 | 0.00 | 0.00 | 94 | 1015.1 |
| 20260505073803 | 50 | 177 | 1.7 | 2.6 | 0.00 | 0.00 | 0.00 | 94 | 1015.0 |
| 20260505073303 | 50 | 153 | 0.9 | 1.7 | 0.00 | 0.00 | 0.00 | 95 | 1015.1 |
| 20260505072803 | 50 | 186 | 0.0 | 0.0 | 0.00 | 0.00 | 0.00 | 95 | 1015.1 |
| 20260505071803 | 49 | 245 | 1.7 | 2.6 | 0.00 | 0.00 | 0.00 | 95 | 1015.2 |
| 20260505071304 | 49 | 279 | 1.7 | 2.6 | 0.00 | 0.00 | 0.00 | 95 | 1015.2 |
| 20260505065803 | 49 | 270 | 1.7 | 2.6 | 0.00 | 0.00 | 0.00 | 95 | 1015.2 |
| 20260505065304 | 49 | 247 | 0.9 | 2.6 | 0.00 | 0.00 | 0.00 | 95 | 1015.4 |
| 20260505064803 | 49 | 226 | 0.0 | 2.6 | 0.00 | 0.00 | 0.00 | 96 | 1015.3 |
| 20260505064304 | 49 | 268 | 0.0 | 2.6 | 0.00 | 0.00 | 0.00 | 96 | 1015.4 |
| 20260505063804 | 49 | 282 | 1.7 | 2.6 | 0.00 | 0.00 | 0.00 | 96 | 1015.4 |
| 20260505063303 | 49 | 203 | 1.7 | 2.6 | 0.00 | 0.00 | 0.00 | 96 | 1015.4 |
| 20260505062803 | 48 | 217 | 1.7 | 2.6 | 0.00 | 0.00 | 0.00 | 96 | 1015.5 |
| 20260505062304 | 48 | 215 | 0.9 | 1.7 | 0.00 | 0.00 | 0.00 | 96 | 1015.4 |
| 20260505061803 | 48 | 210 | 0.0 | 0.9 | 0.00 | 0.00 | 0.00 | 96 | 1015.4 |
| 20260505061303 | 48 | 188 | 0.0 | 0.0 | 0.00 | 0.00 | 0.00 | 96 | 1015.4 |
| 20260505060804 | 47 | 195 | 0.0 | 0.0 | 0.00 | 0.00 | 0.00 | 96 | 1015.5 |
| 20260505060303 | 47 | 195 | 0.0 | 0.0 | 0.00 | 0.00 | 0.00 | 96 | 1015.5 |